Regional Weather Roundup
Issued by NWS

Home | Current Version | Previous Version | Text Only | Print | Product List | Glossary On
Versions: 1 2 3 4 5 6 7 8 9 10 11 12 13 14 15 16 17 18 19 20 21 22 23 24 25 26 27 28 29 30 31 32 33 34 35 36 37 38 39 40 41 42 43 44 45 46 47 48 49 50
000
ASUS43 KDTX 041310
RWRMI
MICHIGAN HOURLY REGIONAL WEATHER ROUNDUP
NATIONAL WEATHER SERVICE DETROIT/PONTIAC MI
900 AM EDT MON MAY 04 2015

NOTE: "FAIR" INDICATES FEW OR NO CLOUDS BELOW 12,000 FEET WITH NO
SIGNIFICANT WEATHER AND/OR OBSTRUCTION TO VISIBILITY.

MIZ047>049-052>055-059>063-066>070-074>076-081>083-041400-
SOUTHEAST LOWER MICHIGAN

CITY           SKY/WX    TMP DP  RH WIND       PRES   REMARKS
ADRIAN         CLOUDY    66  49  54 SW14      30.04S
ALMA           LGT RAIN  61  56  84 S9G16     29.95R
ANN ARBOR      CLOUDY    63  50  62 S8        30.03F
BAD AXE        CLOUDY    63  55  77 S14       29.95F
CARO           CLOUDY    61  57  85 S5        29.94F
DETROIT CITY   CLOUDY    65  50  58 S10       30.04R
DETROIT        CLOUDY    68  49  50 S10       30.04S
FLINT          CLOUDY    64  54  69 S15G25    29.96F
GROSSE ILE     PTSUNNY   63  54  72 S10       30.03S
HILLSDALE      CLOUDY    65  50  59 S13       30.02S
HOWELL         CLOUDY    61  55  78 SE9       29.98F

CITY           SKY/WX    TMP DP  RH WIND       PRES   REMARKS
JACKSON        CLOUDY    64  51  62 S13G22    29.99F
LAMBERTVILLE   PTSUNNY   68  48  49 SW8       30.06R
LANSING        LGT RAIN  61  52  72 S14       29.98R
LAPEER         CLOUDY    60  54  81 S6        29.98F
MASON          CLOUDY    62  52  70 S3        29.99R
MONROE         PTSUNNY   70  50  49 SW10      30.03S
MT. CLEMENS    CLOUDY    64  53  68 S8        30.01S
PONTIAC        CLOUDY    63  51  65 S7        30.01F
PORT HOPE        N/A     65  54  67 SW6       29.93F
PORT HURON     CLOUDY    61  52  72 S8        30.03F
TRI CITIES     CLOUDY    63  56  78 SW10      29.96R
MIDLAND        PTSUNNY   62  58  89 CALM      29.95R
TROY           CLOUDY    66  49  53 SW8       30.04F
SAGINAW HB     CLOUDY    61  61 100 S8        29.94S
$$
MIZ043>046-050>051-056>058-064>065-071>073-077>080-041400-
SOUTHWEST LOWER MICHIGAN

CITY           SKY/WX    TMP DP  RH WIND       PRES   REMARKS
BATTLE CREEK   CLOUDY    64  51  62 SW9       30.01R
BENTON HARBOR  CLOUDY    59  50  72 SW9       30.03R
BIG RAPIDS     CLOUDY    59  55  87 W6        29.96R
COLDWATER      CLOUDY    65  48  54 SW10G18   30.01R
FREMONT        CLOUDY    55  49  82 W5        29.97R
HOLLAND        PTSUNNY   61  52  72 SW10      29.98R
GRAND RAPIDS   CLOUDY    63  51  65 SW16      29.96R
IONIA          PTSUNNY   63  53  70 SW13G20   29.95S
KALAMAZOO      LGT RAIN  63  51  65 SW8       30.02R
LUDINGTON      CLOUDY    51  46  84 W3        30.00R
MARSHALL       CLOUDY    63  51  63 SW9G17    30.00R
MOUNT PLEASANT CLOUDY    60  56  85 S7        29.93F
MUSKEGON       CLOUDY    52  45  77 SW5       29.99R
SOUTH HAVEN    CLOUDY    63  51  64 W10G23    30.02R
$$
MIZ016>042-041400-
NORTHERN LOWER MICHIGAN

CITY           SKY/WX    TMP DP  RH WIND       PRES   REMARKS
ALPENA         LGT RAIN  60  55  83 W6        29.94R
BEAVER ISLAND  CLOUDY    49  48  96 W7        29.97R
BELLAIRE       CLOUDY    57  55  94 CALM      29.97R
CADILLAC       CLOUDY    58  56  91 W5        29.96R
CHARLEVOIX     CLOUDY    52  52  99 W10       30.00R FOG
FRANKFORT      CLOUDY    54  48  82 CALM      29.99R HAZE
GAYLORD        CLOUDY    56  56 100 W5        29.96R
GRAYLING       LGT RAIN  57  56  94 CALM      29.96R
HARBOR SPRINGS LGT RAIN  42  42  99 S3        29.96S VSB<1/4
HOUGHTON LAKE  LGT RAIN  59  56  89 SW3       29.96R
MANISTEE       PTSUNNY   48  45  87 NW9       30.00R
OSCODA         LGT RAIN  60  58  94 W9        29.95R
PELLSTON       CLOUDY    55  53  93 W8        29.96R
ROGERS CITY    LGT RAIN  55  54  95 CALM      29.95R
TRAVERSE CITY  CLOUDY    56  53  90 N6        29.97R FOG
$$
MIZ007>008-015-041400-
EASTERN UPPER MICHIGAN

CITY           SKY/WX    TMP DP  RH WIND       PRES   REMARKS
KINROSS        CLOUDY    52  52 100 W7        29.91R
MACKINAC ISLAN FOG       46  46 100 SW9G16    29.94R VSB 1
NEWBERRY       MOSUNNY   53  45  72 W10G16    29.94R
S. S. MARIE    CLOUDY    54  49  83 W8        29.90S
MUNISING         N/A     47  35  63 NW13      30.00R
$$
MIZ004>006-011>014-085-041400-
CENTRAL UPPER MICHIGAN

CITY           SKY/WX    TMP DP  RH WIND       PRES   REMARKS
MANISTIQUE     CLOUDY    49  44  81 NW7       29.97R
ESCANABA       CLOUDY    55  46  71 NW3       30.00R
MENOMINEE      MOSUNNY   57  46  67 N8        30.01R
SAWYER-GWINN   SUNNY     54  39  58 N16       30.00R
$$
MIZ001>003-009>011-084-041400-
WESTERN UPPER MICHIGAN

CITY           SKY/WX    TMP DP  RH WIND       PRES   REMARKS
IRON MOUNTAIN  SUNNY     55  40  56 NW10      30.02R
HOUGHTON       SUNNY     50  37  61 NW14      30.05R
COPPER HARBOR    N/A     49  37  63 N8        30.04R
IRONWOOD       SUNNY     48  37  66 NW6       30.08R
$$

ABBREVIATIONS USED IN REMARKS
   TC - TEMPERATURE IN CELSIUS
  WCI - WIND CHILL INDEX
   HX - HEAT INDEX
  VSB - VISIBILITY



USA.gov is the U.S. government's official web portal to all federal, state and local government web resources and services.